SL-12 DEB, 41641

Orbit data source: Space-Track

SL-12 DEB, 41641 is space debris in HEO originally from a launch on Thu, 25 Dec 2008 UTC launched from the Tyuratam Missile And Space Complex (TTMTR). Debris objects in space refer to the collection of defunct objects orbiting the Earth. Examples of debris include non-operational satellites, rocket bodies, and fragments generated from explosions, collisions, or faulty payload assembly.

Loading next visibility...
Identifier
41641, 2008-067M
Orbit
HEO
Country
Flag of CISCIS
Related business
Manufacturer
RKKE
Mission
Spacecraft
Bus & Motor
Unknown
Mass
Unknown
Launch date (UTC)
2008-12-25 (17 years ago)
Launch vehicle
Unknown
Launch site
Tyuratam Missile And Space Complex (TTMTR)
Object type
Payload
Rocket body
Debris
Shape & HBR
Unknown
Radar Cross Section
Medium (>0.1 m² and <1 m²)

Expand to show TLE details & history
Last TLE update: 3 days ago

TLE from 3 days ago
0 SL-12 DEB
1 41641U 08067M   25257.39032600  .00000211  00000-0  14434-2 0  9993
2 41641  65.0635 232.4813 5592800 298.1944  16.7707  4.29344600143099
Epoch: 2025-09-14T09:22Z
TLE epoch observation values (Epoch: 2025-09-14T09:22:04.166Z)
Latitude
-0.00005°
Longitude
98.35759°
Altitude
2,319.961 km
Speed
8.17 km/s
True Right ascension
15h 29m 56s
True Declination
0° 00' 00"
Sunlit
Object was in daylight at epoch
Visualization orbit readout
Latitude
Unknown
Longitude
Unknown
Altitude
Unknown
Speed
Unknown
Apparent Right ascension
Unknown
Apparent Declination
Unknown
Sunlit
N/A
Visualization observer readout
Local Sidereal Time
19:08:57
Azimuth
Unknown
Elevation
Unknown
Doppler factor
Unknown
Orbital elements
Apogee altitude
18,553.927 km
Perigee altitude
668.743 km
Semi-major axis
15,989.472 km
Eccentricity
0.55928
Inclination
65.0635°
RAAN
232.4813°
Arg. of periapsis
298.1944°
True anomaly
61.76546°
Mean anomaly
16.7707°
Eccentric anomaly
35.27754°
Mean motion
1.07348 °/min
Orbital period
335.36 mins
BSTAR
0.0014434
Loading maneuver chart data...
Computing Atmospheric mass density...
Loading historical data...
Loading historical data...
Loading historical data...
Loading historical data...
Loading historical data...
Loading historical data...
Loading historical data...

Documentation

Showing up to 5 results
|